Vancouver, British Columbia

5:21 AM PDT on June 29, 2017 (GMT -0700)
Vancouver International Airport

Weather History for CYVR - January, 2012

Change the Weather History Date:

Friday, January 20, 2012

  Actual Average Record
Temperature  
Mean Temperature 32 °F -  
Max Temperature 43 °F 45 °F 53 °F (2005)
Min Temperature 20 °F 34 °F 23 °F (2012)
Degree Days  
Heating Degree Days 34    
Moisture  
Dew Point 31 °F    
Average Humidity 93    
Maximum Humidity 100    
Minimum Humidity 74    
Precipitation  
Precipitation 0.43 in 0.17 in - ()
Sea Level Pressure  
Sea Level Pressure 29.46 in    
Wind  
Wind Speed 8 mph ()    
Max Wind Speed 20 mph    
Max Gust Speed 21 mph    
Visibility 6.1 miles    
Events Rain , Snow    
Averages and records for this station are not official NWS values.
T = Trace of Precipitation, MM = Missing Value Source: Averaged Metar Reports

Daily Weather History Graph

Daily Weather History Graph

Search for Another Location

Airport or City:

Trip Planner

Search our weather history database for the weather conditions in past years. The results will help you decide how hot, cold, wet, or windy it might be!

Date:

Astronomy

Jan. 20, 2012 Rise Set
Actual Time 7:58 AM PST 4:49 PM PST
Civil Twilight 7:22 AM PST 5:25 PM PST
Nautical Twilight 6:43 AM PST 6:04 PM PST
Astronomical Twilight 6:05 AM PST 6:42 PM PST
Moon 5:47 AM PST (1/20) 2:20 PM PST (1/20)
Length of Visible Light 10h 02m
Length of Day
8h 51m
Waning Crescent, 7% of the Moon is Illuminated
Jan 20
Waning Crescent
Jan 22
New
Jan 30
First Quarter
Feb 7
Full
Feb 14
Last Quarter

Hourly Weather History & Observations

Time (PST) Temp. Windchill Dew Point Humidity Pressure Visibility Wind Dir Wind Speed Gust Speed Precip Events Conditions
12:00 AM 24.8 °F 16.9 °F 17.6 °F 74% 29.81 in 8.0 mi ESE 6.9 mph - N/A Snow Light Snow
12:21 AM 23.0 °F 13.9 °F - N/A% - 3.0 mi ESE 8.1 mph - N/A Snow Light Snow
12:41 AM 23.0 °F 13.1 °F - N/A% - 3.0 mi ESE 9.2 mph - N/A Snow Light Snow
1:00 AM 23.0 °F 13.9 °F 21.2 °F 93% 29.80 in 3.0 mi East 8.1 mph - N/A Snow Light Snow
1:13 AM 23.0 °F 15.8 °F - N/A% - 1.5 mi East 5.8 mph - N/A Snow Light Snow
2:00 AM 23.0 °F 18.4 °F 21.2 °F 93% 29.80 in 2.0 mi East 3.5 mph - N/A Snow Light Snow
3:00 AM 23.0 °F 15.8 °F 21.2 °F 93% 29.79 in 2.5 mi ESE 5.8 mph - N/A Snow Light Snow
4:00 AM 24 °F - 22 °F 88% 29.77 in 3 mi East 2.3 mph - - Snow Light Snow
4:00 AM 24.8 °F 20.5 °F 21.2 °F 86% 29.77 in 3.0 mi East 3.5 mph - N/A Snow Light Snow
4:14 AM 24.8 °F 20.5 °F - N/A% - 6.0 mi East 3.5 mph - N/A   Light Freezing Drizzle
4:31 AM 24.8 °F 19.1 °F - N/A% - 6.0 mi East 4.6 mph - N/A   Light Freezing Drizzle
5:00 AM 24.8 °F 19.1 °F 23.0 °F 93% 29.76 in 6.0 mi East 4.6 mph - N/A   Light Freezing Drizzle
6:00 AM 26.6 °F 17.5 °F 24.8 °F 93% 29.73 in 8.0 mi East 9.2 mph - N/A   Overcast
6:47 AM 26.6 °F 15.7 °F - N/A% - 8.0 mi East 12.7 mph - N/A   Light Freezing Drizzle
7:00 AM 26.6 °F 17.5 °F 24.8 °F 93% 29.70 in 8.0 mi ESE 9.2 mph - N/A   Light Freezing Drizzle
7:25 AM 26.6 °F 17.5 °F - N/A% - 8.0 mi ESE 9.2 mph - N/A   Overcast
8:00 AM 28.4 °F 19.7 °F 26.6 °F 93% 29.66 in 8.0 mi East 9.2 mph - N/A   Overcast
8:39 AM 28.4 °F 20.4 °F - N/A% - 8.0 mi East 8.1 mph - N/A Rain Light Freezing Rain
9:00 AM 28.4 °F 21.2 °F 26.6 °F 93% 29.62 in 8.0 mi East 6.9 mph - N/A Rain Light Freezing Rain
9:10 AM 30.2 °F 23.4 °F - N/A% - 8.0 mi ESE 6.9 mph - N/A Rain Light Freezing Rain
9:24 AM 30.2 °F 24.3 °F - N/A% - 6.0 mi East 5.8 mph - N/A Rain Light Freezing Rain
9:26 AM 30.2 °F 24.3 °F - N/A% - 3.0 mi East 5.8 mph - N/A Rain Light Freezing Rain
9:28 AM 30.2 °F 24.3 °F - N/A% - 2.5 mi East 5.8 mph - N/A Rain Light Freezing Rain
9:30 AM 30.2 °F 23.4 °F - N/A% - 2.0 mi East 6.9 mph - N/A   Light Freezing Drizzle
9:40 AM 30.2 °F 21.9 °F - N/A% - 2.0 mi ESE 9.2 mph - N/A Rain Light Freezing Drizzle
10:00 AM 31 °F - 29 °F 89% 29.60 in 2 mi ESE 9.2 mph - -   Light Freezing Rain
10:00 AM 30.2 °F 20.8 °F 28.4 °F 93% 29.60 in 2.0 mi ESE 11.5 mph - N/A Rain Light Freezing Drizzle
10:22 AM 30.2 °F 22.6 °F - N/A% - 2.0 mi ESE 8.1 mph - N/A Rain Light Freezing Drizzle
10:31 AM 32.0 °F 25.6 °F - N/A% - 2.0 mi ESE 6.9 mph - N/A Rain Light Freezing Drizzle
10:52 AM 32.0 °F 24.8 °F - N/A% - 2.0 mi East 8.1 mph - N/A   Light Freezing Drizzle
11:00 AM 32.0 °F 24.2 °F 30.2 °F 93% 29.56 in 2.0 mi ESE 9.2 mph - N/A   Light Drizzle
11:24 AM 32.0 °F 24.2 °F - N/A% - 3.0 mi East 9.2 mph - N/A   Light Drizzle
11:40 AM 33.8 °F 26.4 °F - N/A% - 6.0 mi East 9.2 mph - N/A   Overcast
11:48 AM 33.8 °F 27.7 °F - N/A% - 8.0 mi ESE 6.9 mph - N/A   Overcast
12:00 PM 33.8 °F 27.0 °F 32.0 °F 93% 29.49 in 8.0 mi East 8.1 mph - N/A   Overcast
12:47 PM 33.8 °F 27.0 °F - N/A% - 12.0 mi East 8.1 mph - N/A Rain Light Rain
1:00 PM 35.6 °F 28.6 °F 33.8 °F 93% 29.43 in 6.0 mi East 9.2 mph - N/A Rain Light Rain
1:18 PM 35.6 °F 29.2 °F - N/A% - 8.0 mi East 8.1 mph - N/A Rain Light Rain
2:00 PM 35.6 °F 31.7 °F 35.6 °F 100% 29.39 in 8.0 mi South 4.6 mph - N/A Rain Light Rain
2:21 PM 35.6 °F 29.9 °F - N/A% - 6.0 mi ESE 6.9 mph - N/A Rain Light Rain
2:34 PM 35.6 °F 29.9 °F - N/A% - 8.0 mi East 6.9 mph - N/A Rain Light Rain
3:00 PM 37.4 °F 29.3 °F 35.6 °F 93% 29.34 in 8.0 mi East 12.7 mph - N/A Rain Light Rain
4:00 PM 38 °F - 37 °F 96% 29.28 in 7 mi East 13.8 mph - - Rain Light Rain
4:00 PM 37.4 °F 28.9 °F 37.4 °F 100% 29.28 in 8.0 mi East 13.8 mph - N/A Rain Light Rain
5:00 PM 41.0 °F 32.8 °F 39.2 °F 93% 29.22 in 12.0 mi East 16.1 mph - N/A Rain Light Rain
6:00 PM 42.8 °F 35.8 °F 41.0 °F 93% 29.15 in 10.0 mi ENE 13.8 mph 20.7 mph N/A Rain Rain
6:07 PM 41.0 °F 32.8 °F - N/A% - 6.0 mi East 16.1 mph - N/A Rain Rain
6:38 PM 41.0 °F 33.9 °F - N/A% - 8.0 mi East 12.7 mph - N/A Rain Rain
7:00 PM 41.0 °F 33.1 °F 39.2 °F 93% 29.11 in 10.0 mi East 15.0 mph - N/A Rain Light Rain
8:00 PM 39.2 °F 33.0 °F 39.2 °F 100% 29.07 in 10.0 mi East 9.2 mph - N/A Rain Rain
9:00 PM 41.0 °F 34.7 °F 39.2 °F 93% 29.06 in 8.0 mi ESE 10.4 mph - N/A Rain Light Rain
9:18 PM 39.2 °F 32.5 °F - N/A% - 8.0 mi East 10.4 mph - N/A Rain Rain
10:00 PM 39 °F - 38 °F 97% 29.04 in 7 mi East 16.1 mph - - Rain Light Rain
10:00 PM 39.2 °F 30.5 °F 39.2 °F 100% 29.04 in 8.0 mi East 16.1 mph - N/A Rain Light Rain
10:22 PM 39.2 °F 29.6 °F - N/A% - 8.0 mi East 19.6 mph - N/A Rain Light Rain
11:00 PM 39.2 °F 30.2 °F 39.2 °F 100% 29.03 in 8.0 mi East 17.3 mph - N/A Rain Light Rain
11:23 PM 41.0 °F 33.5 °F - N/A% - 8.0 mi East 13.8 mph - N/A   Overcast